모두
Vereeniging Airport (Vereeniging, South Africa) FAVV 기상
|
Vereeniging, South Africa (FAVV)
맑은 하늘
잔잔한 바람 |
|
4 °C |
There is no TAF data available at FAVV or any nearby airports.
최근 FAVV METAR 이력
| Date | Time (SAST) | Flight Rules | Wind Dir. | Speed | Type | Height AGL (ft) | Visibility | Temp (°C) | Temp (°F) | Dew Point (°C) | Dew Point (°F) | Rel. Humid. | Pressure | Density Altitude | Remarks |
|---|---|---|---|---|---|---|---|---|---|---|---|---|---|---|---|
| 08-5월 | 23:00 | n/a | 280° | 3 kt | Missing | 4° | 39° | 3° | 37° | 93% | 1023 mb | 4,199 ft | |||
| 08-5월 | 22:00 | n/a | 270° | 1 kt | Missing | 6° | 42° | 3° | 37° | 81% | 1022 mb | 4,469 ft | |||
| 08-5월 | 21:00 | n/a | 280° | 3 kt | Missing | 6° | 42° | 3° | 37° | 81% | 1023 mb | 4,439 ft | |||
| 08-5월 | 20:00 | n/a | 270° | 3 kt | Missing | 8° | 46° | 4° | 39° | 76% | 1022 mb | 4,709 ft | |||
| gap in available data | |||||||||||||||
| 08-5월 | 18:00 | n/a | 180° | 2 kt | Missing | 13° | 55° | 3° | 37° | 51% | 1021 mb | 5,338 ft | |||
| 08-5월 | 17:00 | n/a | 200° | 4 kt | Missing | 15° | 59° | 2° | 35° | 41% | 1021 mb | 5,578 ft | |||
| 08-5월 | 16:00 | n/a | 230° | 4 kt | Missing | 17° | 62° | 2° | 35° | 36% | 1021 mb | 5,818 ft | |||
| gap in available data | |||||||||||||||
| 08-5월 | 14:00 | n/a | 240° | 5 kt | Missing | 16° | 60° | 3° | 37° | 42% | 1021 mb | 5,698 ft | |||
| 08-5월 | 13:00 | n/a | 210° | 5 kt | Missing | 14° | 57° | 2° | 35° | 44% | 1022 mb | 5,429 ft | |||
| 08-5월 | 12:00 | n/a | 220° | 5 kt | Missing | 14° | 57° | 3° | 37° | 47% | 1023 mb | 5,399 ft | |||
| 08-5월 | 11:00 | n/a | 200° | 6 kt | Missing | 12° | 53° | 3° | 37° | 54% | 1023 mb | 5,159 ft | |||
| 08-5월 | 10:00 | n/a | 190° | 5 kt | Missing | 11° | 51° | 4° | 39° | 62% | 1024 mb | 5,010 ft | |||
| 08-5월 | 09:00 | n/a | 220° | 3 kt | Missing | 10° | 50° | 6° | 42° | 76% | 1024 mb | 4,890 ft | |||
| gap in available data | |||||||||||||||
| 08-5월 | 06:00 | n/a | 280° | 3 kt | Missing | 2° | 35° | 2° | 35° | 100% | 1022 mb | 3,989 ft | |||
| 08-5월 | 05:00 | n/a | 260° | 2 kt | Missing | 2° | 35° | 2° | 35° | 100% | 1021 mb | 4,018 ft | |||
| 08-5월 | 04:00 | n/a | 290° | 3 kt | Missing | 2° | 35° | 2° | 35° | 100% | 1021 mb | 4,018 ft | |||
| 08-5월 | 03:00 | n/a | 270° | 3 kt | Missing | 3° | 37° | 2° | 35° | 93% | 1021 mb | 4,138 ft | |||
| 08-5월 | 02:00 | n/a | 280° | 3 kt | Missing | 3° | 37° | 2° | 35° | 93% | 1021 mb | 4,138 ft | |||
| 08-5월 | 01:00 | n/a | 300° | 3 kt | Missing | 4° | 39° | 3° | 37° | 93% | 1021 mb | 4,258 ft | |||
| 08-5월 | 00:00 | n/a | 210° | 2 kt | Missing | 6° | 42° | 3° | 37° | 81% | 1022 mb | 4,469 ft | |||
| 07-5월 | 23:00 | n/a | 210° | 3 kt | Missing | 7° | 44° | 4° | 39° | 81% | 1023 mb | 4,559 ft | |||
| 07-5월 | 22:00 | n/a | 210° | 3 kt | Missing | 7° | 44° | 4° | 39° | 81% | 1023 mb | 4,559 ft | |||
| 07-5월 | 21:00 | n/a | 200° | 2 kt | Missing | 8° | 46° | 4° | 39° | 76% | 1022 mb | 4,709 ft | |||
| 07-5월 | 20:00 | n/a | 170° | 3 kt | Missing | 10° | 50° | 5° | 41° | 71% | 1022 mb | 4,949 ft | |||
로그인
| 귀하의 브라우저는 지원되지 않습니다.. 브라우저를 업그레이드하세요 |
